This is the latest recevied weather packets stored in our database for station/object DH0DM-13. If no packets are shown the sender has not sent any weather packets the latest 10 day(s).
| Time | Temp. | Humidity | Pressure | Rain* | Wind** | Luminosity | Snow |
|---|---|---|---|---|---|---|---|
| 1787989576 | 18.89° C | 67% | 988.2 hPa | 2.03 mm | 10.28 m/s, 274° | - | - |
| 1787988975 | 18.89° C | 70% | 988.2 hPa | 2.03 mm | 1.79 m/s, 242° | - | - |
| 1787988374 | 18.89° C | 71% | 988.3 hPa | 2.03 mm | 2.68 m/s, 213° | - | - |
| 1787987773 | 18.33° C | 72% | 988 hPa | 2.03 mm | 4.92 m/s, 179° | - | - |
| 1787987172 | 18.33° C | 71% | 988 hPa | 2.03 mm | 7.6 m/s, 222° | - | - |
| 1787986571 | 18.33° C | 73% | 987.9 hPa | 2.03 mm | 9.83 m/s, 258° | - | - |
| 1787985970 | 18.33° C | 74% | 988 hPa | 2.03 mm | 2.68 m/s, 255° | - | - |
| 1787985370 | 18.33° C | 73% | 987.9 hPa | 2.03 mm | 10.28 m/s, 237° | - | - |
| 1787984769 | 18.33° C | 75% | 987.8 hPa | 2.03 mm | 3.58 m/s, 181° | - | - |
| 1787984168 | 18.33° C | 75% | 987.7 hPa | 2.03 mm | 4.02 m/s, 220° | - | - |
| 1787983567 | 18.33° C | 77% | 987.6 hPa | 2.03 mm | 0.45 m/s, 172° | - | - |
| 1787982966 | 17.78° C | 77% | 987.6 hPa | 2.03 mm | 2.68 m/s, 162° | - | - |
| 1787982365 | 17.78° C | 79% | 987.7 hPa | 2.03 mm | 0.45 m/s, 229° | - | - |
| 1787981764 | 17.78° C | 78% | 987.3 hPa | 2.03 mm | 8.49 m/s, 194° | - | - |
| 1787981163 | 17.78° C | 79% | 987.4 hPa | 2.03 mm | 2.68 m/s, 218° | - | - |
| 1787980562 | 17.22° C | 80% | 987.2 hPa | 2.03 mm | 2.68 m/s, 196° | - | - |
| 1787979962 | 16.67° C | 81% | 987.2 hPa | 2.03 mm | 4.92 m/s, 230° | - | - |
| 1787979361 | 16.67° C | 82% | 987 hPa | 2.03 mm | 2.24 m/s, 222° | - | - |
| 1787978760 | 16.67° C | 83% | 986.9 hPa | 2.03 mm | 7.15 m/s, 245° | - | - |
| 1787978159 | 16.67° C | 83% | 986.6 hPa | 2.03 mm | 4.92 m/s, 205° | - | - |
| 1787977558 | 16.67° C | 83% | 986.7 hPa | 2.03 mm | 4.47 m/s, 219° | - | - |
| 1787976957 | 16.67° C | 83% | 986.4 hPa | 2.03 mm | 2.24 m/s, 211° | - | - |
| 1787976356 | 16.67° C | 83% | 986.3 hPa | 2.03 mm | 2.24 m/s, 259° | - | - |
| 1787975755 | 16.67° C | 83% | 986.5 hPa | 2.03 mm | 8.49 m/s, 254° | - | - |
| 1787975154 | 17.22° C | 83% | 986.3 hPa | 2.03 mm | 3.58 m/s, 196° | - | - |
* Rain since midnight (hover to see other rain measurements)
** Current wind speed in m/s (hover to see current wind gust speed)